This is the latest recevied weather packets stored in our database for station/object IZ1UQG-2. If no packets are shown the sender has not sent any weather packets the latest 10 day(s).
| Time | Temp. | Humidity | Pressure | Rain* | Wind** | Luminosity | Snow |
|---|---|---|---|---|---|---|---|
| 1777823767 | 21.67° C | 44% | 1014.4 hPa | 0 mm | - | 186 W/m² | - |
| 1777823526 | 21.67° C | 44% | 1014.4 hPa | 0 mm | - | 190 W/m² | - |
| 1777822326 | 21.67° C | 44% | 1014.5 hPa | 0 mm | - | 207 W/m² | - |
| 1777821786 | 21.67° C | 44% | 1014.7 hPa | 0 mm | - | 234 W/m² | - |
| 1777821426 | 21.67° C | 44% | 1014.7 hPa | 0 mm | - | 243 W/m² | - |
| 1777821365 | 21.67° C | 44% | 1014.7 hPa | 0 mm | - | 243 W/m² | - |
| 1777820645 | 21.67° C | 44% | 1014.8 hPa | 0 mm | - | 271 W/m² | - |
| 1777820345 | 21.67° C | 44% | 1014.7 hPa | 0 mm | - | 287 W/m² | - |
| 1777819088 | 22.22° C | 41% | 1015 hPa | 0 mm | - | 452 W/m² | - |
| 1777818487 | 22.22° C | 41% | 1015.1 hPa | 0 mm | - | 378 W/m² | - |
| 1777818366 | 22.22° C | 41% | 1015.1 hPa | 0 mm | - | 376 W/m² | - |
| 1777817716 | 22.22° C | 39% | 1015.1 hPa | 0 mm | - | 373 W/m² | - |
| 1777817406 | 22.22° C | 39% | 1015.2 hPa | 0 mm | - | 390 W/m² | - |
| 1777817115 | 22.22° C | 37% | 1015.2 hPa | 0 mm | - | 403 W/m² | - |
| 1777817046 | 22.22° C | 37% | 1015.3 hPa | 0 mm | - | 418 W/m² | - |
| 1777816146 | 22.78° C | 38% | 1015.4 hPa | 0 mm | - | 490 W/m² | - |
| 1777815736 | 22.78° C | 37% | 1015.5 hPa | 0 mm | - | 522 W/m² | - |
| 1777815606 | 22.78° C | 37% | 1015.5 hPa | 0 mm | - | 591 W/m² | - |
| 1777815246 | 22.78° C | 36% | 1015.6 hPa | 0 mm | - | 531 W/m² | - |
| 1777815185 | 22.78° C | 35% | 1015.5 hPa | 0 mm | - | 605 W/m² | - |
| 1777815128 | 23.33° C | 36% | 1015.4 hPa | 0 mm | - | 612 W/m² | - |
| 1777814706 | 23.33° C | 34% | 1015.4 hPa | 0 mm | - | 541 W/m² | - |
| 1777814646 | 23.33° C | 34% | 1015.6 hPa | 0 mm | - | 578 W/m² | - |
| 1777814406 | 23.33° C | 34% | 1015.5 hPa | 0 mm | - | 570 W/m² | - |
| 1777814106 | 22.78° C | 35% | 1015.7 hPa | 0 mm | - | 591 W/m² | - |
* Rain latest hour (hover to see other rain measurements)
** Current wind speed in m/s (hover to see current wind gust speed)